Weather History for De Queen, AR

Change the Weather History Date:

Tuesday, April 15, 2014

  Actual Average Record
Temperature  
Mean Temperature 46 °F 61 °F  
Max Temperature 63 °F 74 °F 88 °F (1955)
Min Temperature 29 °F 48 °F 27 °F (1980)
Degree Days  
Heating Degree Days 19 5  
Month to date heating degree days 119 103  
Since 1 July heating degree days 3352 2971  
Cooling Degree Days 0 1  
Month to date cooling degree days 17 15  
Year to date cooling degree days 18 26  
Moisture  
Dew Point 30 °F    
Average Humidity 61    
Maximum Humidity 100    
Minimum Humidity 21    
Precipitation  
Precipitation 0.00 in 0.12 in 2.25 in (2001)
Month to date precipitation 3.08 1.69  
Year to date precipitation 8.17 13.33  
Snow  
Snow 0.00 in - - ()
Month to date snowfall 0.0  
Since 1 July snowfall 1.2  
Snow Depth 0.00 in    
Sea Level Pressure  
Sea Level Pressure 30.22 in    
Wind  
Wind Speed 2 mph (WSW)    
Max Wind Speed 15 mph    
Max Gust Speed 19 mph    
Visibility 7 miles    
Events Fog    
T = Trace of Precipitation, MM = Missing Value Source: NWS Daily Summary

Daily Weather History Graph

Daily Weather History Graph

Search for Another Location

Airport:

Trip Planner

Search our weather history database for the weather conditions in past years. The results will help you decide how hot, cold, wet, or windy it might be!

Date:

Astronomy

Apr. 15, 2014 Rise Set
Actual Time 6:46 AM CDT 7:49 PM CDT
Civil Twilight 6:20 AM CDT 8:14 PM CDT
Nautical Twilight 5:50 AM CDT 8:45 PM CDT
Astronomical Twilight 5:18 AM CDT 9:17 PM CDT
Moon 8:28 PM CDT (4/15) 6:55 AM CDT (4/15)
Length of Visible Light 13h 53m
Length of Day
13h 02m
Full, 100% of the Moon is Illuminated
Apr 15
Full
Apr 22
Last Quarter
Apr 29
New
May 6
First Quarter
May 14
Full

Hourly Weather History & Observations

Time (CDT) Temp. Windchill Dew Point Humidity Pressure Visibility Wind Dir Wind Speed Gust Speed Precip Events Conditions
12:53 AM 39.0 °F 36.8 °F 28.0 °F 65% 30.20 in 10.0 mi WNW 3.5 mph - N/A   Clear
1:53 AM 36.0 °F - 28.9 °F 76% 30.20 in 10.0 mi Calm Calm - N/A   Clear
2:53 AM 33.1 °F - 30.9 °F 92% 30.21 in 10.0 mi Calm Calm - N/A   Clear
3:53 AM 30.9 °F 27.5 °F 30.0 °F 96% 30.23 in 10.0 mi WSW 3.5 mph - N/A   Clear
4:53 AM 30.9 °F - 30.0 °F 96% 30.24 in 6.0 mi Calm Calm - N/A   Clear
5:25 AM 30.0 °F - 28.9 °F 96% 30.24 in 1.5 mi Calm Calm - N/A   Clear
5:34 AM 30.0 °F - 28.9 °F 96% 30.24 in 0.5 mi Calm Calm - N/A Fog Light Freezing Fog
5:42 AM 30.0 °F - 28.9 °F 96% 30.24 in 0.2 mi Calm Calm - N/A Fog Light Freezing Fog
5:45 AM 30.0 °F - 28.9 °F 96% 30.24 in 0.5 mi Calm Calm - N/A Fog Light Freezing Fog
5:53 AM 30.0 °F - 28.9 °F 96% 30.24 in 1.0 mi Calm Calm - N/A   Clear
6:03 AM 28.9 °F - 28.9 °F 100% 30.24 in 0.5 mi Calm Calm - N/A Fog Light Freezing Fog
6:20 AM 28.9 °F - 28.9 °F 100% 30.24 in 0.5 mi Calm Calm - N/A Fog Light Freezing Fog
6:34 AM 28.9 °F - 28.9 °F 100% 30.25 in 0.2 mi Calm Calm - N/A Fog Light Freezing Fog
6:53 AM 28.9 °F - 28.9 °F 100% 30.26 in 0.2 mi Calm Calm - N/A Fog Light Freezing Fog
7:19 AM 30.0 °F - 30.0 °F 100% 30.26 in 0.5 mi Calm Calm - N/A Fog Light Freezing Fog
7:27 AM 30.0 °F - 30.0 °F 100% 30.26 in 1.8 mi Calm Calm - N/A   Clear
7:30 AM 30.0 °F - 30.0 °F 100% 30.26 in 3.0 mi Calm Calm - N/A   Clear
7:53 AM 30.9 °F - 30.9 °F 100% 30.27 in 10.0 mi Calm Calm - N/A   Clear
8:53 AM 35.1 °F - 30.9 °F 85% 30.29 in 10.0 mi Calm Calm - N/A   Clear
9:53 AM 45.0 °F - 32.0 °F 60% 30.28 in 10.0 mi Calm Calm - N/A   Clear
10:53 AM 50.0 °F - 28.0 °F 43% 30.28 in 10.0 mi SW 6.9 mph - N/A   Clear
11:53 AM 54.0 °F - 25.0 °F 33% 30.27 in 10.0 mi Calm Calm - N/A   Clear
12:53 PM 57.0 °F - 27.0 °F 32% 30.24 in 10.0 mi NNE 10.4 mph 16.1 mph N/A   Clear
1:53 PM 59.0 °F - 26.1 °F 28% 30.21 in 10.0 mi Variable 3.5 mph - N/A   Clear
3:53 PM 61.0 °F - 24.1 °F 24% 30.15 in 10.0 mi NW 3.5 mph - N/A   Clear
4:53 PM 62.1 °F - 23.0 °F 22% 30.12 in 10.0 mi Calm Calm - N/A   Clear
5:53 PM 61.0 °F - 24.1 °F 24% 30.11 in 10.0 mi SSW 4.6 mph - N/A   Clear
6:53 PM 60.1 °F - 30.0 °F 32% 30.12 in 10.0 mi SW 5.8 mph - N/A   Clear
7:53 PM 55.9 °F - 30.0 °F 37% 30.12 in 10.0 mi South 5.8 mph - N/A   Clear
8:53 PM 48.0 °F - 37.0 °F 66% 30.14 in 10.0 mi Calm Calm - N/A   Clear
9:53 PM 44.1 °F - 39.0 °F 82% 30.16 in 10.0 mi Calm Calm - N/A   Clear
10:53 PM 42.1 °F 40.2 °F 39.0 °F 89% 30.16 in 10.0 mi East 3.5 mph - N/A   Clear
11:53 PM 39.9 °F - 37.9 °F 93% 30.16 in 10.0 mi Calm Calm - N/A   Clear